Location: Comstock Ranch
(38.0499°N, 120.2627°W)
Time: 22:08:47
(UTC+00:00)

CENTAUR R/B - Pass Details

Date: 08 September 2024
Orbit: 661 x 1523 km, 63.4° (Epoch: 12 October)

Event Time Altitude Azimuth Distance (km) Brightness Sun altitude
Exits shadow 12:51:44 11° 241° (WSW) 2,296 3.8 -9.6°
Maximum altitude 12:56:43 43° 312° (NW) 1,255 2.9 -8.7°
Drops below altitude 10° 13:03:06 10° 23° (NNE) 2,913 5.5 -7.5°
Sets 13:06:14 0° 30° (NNE) 4,021 6.4 -6.9°
